Time,TemperatureF,DewpointF,PressureIn,WindDirection,WindDirectionDegrees,WindSpeedMPH,WindSpeedGustMPH,Humidity,HourlyPrecipIn,Conditions,Clouds,dailyrainin,SolarRadiationWatts/m^2,SoftwareType,DateUTC
2013-11-19 00:01:00,76.5,71.3,29.94,WSW,248,0.0,1.0,84,0.00,,FEW021,0.00,0.00,VWS V14.01,2013-11-19 05:01:00,
2013-11-19 00:06:00,76.4,71.2,29.94,WSW,248,0.0,0.0,84,0.00,,FEW021,0.00,0.00,VWS V14.01,2013-11-19 05:06:00,
2013-11-19 00:11:00,76.4,71.2,29.94,WSW,248,2.0,2.0,84,0.00,,FEW021,0.00,0.00,VWS V14.01,2013-11-19 05:11:00,
2013-11-19 00:16:00,76.5,71.0,29.93,WSW,248,1.0,2.0,83,0.00,,FEW021,0.00,0.00,VWS V14.01,2013-11-19 05:16:00,
2013-11-19 00:21:00,76.5,71.0,29.93,WSW,257,2.0,5.0,83,0.00,,FEW021,0.00,0.00,VWS V14.01,2013-11-19 05:21:00,
2013-11-19 00:26:00,76.5,71.0,29.93,WSW,257,2.0,3.0,83,0.00,,FEW021,0.00,0.00,VWS V14.01,2013-11-19 05:26:00,
2013-11-19 00:31:00,76.5,71.3,29.93,WSW,257,2.0,4.0,84,0.00,,FEW021,0.00,0.00,VWS V14.01,2013-11-19 05:31:00,
2013-11-19 00:36:00,76.4,71.2,29.93,West,275,1.0,4.0,84,0.00,,FEW021,0.00,0.00,VWS V14.01,2013-11-19 05:36:00,
2013-11-19 00:41:00,76.4,71.2,29.92,WSW,251,2.0,3.0,84,0.00,,FEW021,0.00,0.00,VWS V14.01,2013-11-19 05:41:00,
2013-11-19 00:46:00,76.4,71.2,29.92,WSW,250,2.0,5.0,84,0.00,,FEW021,0.00,0.00,VWS V14.01,2013-11-19 05:46:00,
2013-11-19 00:51:00,76.3,71.5,29.92,West,271,2.0,3.0,85,0.00,,FEW021,0.00,0.00,VWS V14.01,2013-11-19 05:51:00,
2013-11-19 00:56:00,76.3,71.5,29.92,West,264,1.0,4.0,85,0.00,,FEW021,0.00,0.00,VWS V14.01,2013-11-19 05:56:00,
2013-11-19 01:01:00,76.2,71.4,29.92,West,264,2.0,2.0,85,0.00,,FEW021,0.00,0.00,VWS V14.01,2013-11-19 06:01:00,
2013-11-19 01:06:00,76.0,71.2,29.92,West,265,1.0,3.0,85,0.00,,FEW021,0.00,0.00,VWS V14.01,2013-11-19 06:06:00,
2013-11-19 01:11:00,75.9,71.1,29.92,West,265,1.0,2.0,85,0.00,,FEW021,0.00,0.00,VWS V14.01,2013-11-19 06:11:00,
2013-11-19 01:16:00,75.8,71.3,29.92,West,264,1.0,2.0,86,0.00,,FEW021,0.00,0.00,VWS V14.01,2013-11-19 06:16:00,
2013-11-19 01:21:00,75.7,71.2,29.91,West,265,2.0,2.0,86,0.00,,FEW021,0.00,0.00,VWS V14.01,2013-11-19 06:21:00,
2013-11-19 01:26:00,75.6,71.5,29.91,West,264,0.0,2.0,87,0.00,,FEW021,0.00,0.00,VWS V14.01,2013-11-19 06:26:00,
2013-11-19 01:31:00,75.5,71.4,29.91,West,264,0.0,0.0,87,0.00,,FEW021,0.00,0.00,VWS V14.01,2013-11-19 06:31:00,
2013-11-19 01:36:00,75.3,71.2,29.91,West,264,0.0,2.0,87,0.00,,FEW021,0.00,0.00,VWS V14.01,2013-11-19 06:36:00,
2013-11-19 01:41:00,75.2,71.1,29.91,West,265,1.0,2.0,87,0.00,,FEW021,0.00,0.00,VWS V14.01,2013-11-19 06:41:00,
2013-11-19 01:46:00,75.1,71.3,29.91,West,264,0.0,2.0,88,0.00,,FEW021,0.00,0.00,VWS V14.01,2013-11-19 06:46:00,
2013-11-19 01:51:00,75.1,71.3,29.91,West,265,1.0,2.0,88,0.00,,FEW021,0.00,0.00,VWS V14.01,2013-11-19 06:51:00,
2013-11-19 01:56:00,74.9,71.1,29.91,West,265,0.0,2.0,88,0.00,,FEW021,0.00,0.00,VWS V14.01,2013-11-19 06:56:00,
2013-11-19 02:01:00,74.8,71.0,29.90,West,265,2.0,3.0,88,0.00,,FEW021,0.00,0.00,VWS V14.01,2013-11-19 07:01:00,
2013-11-19 02:06:00,74.7,70.9,29.90,West,264,0.0,2.0,88,0.00,,FEW021,0.00,0.00,VWS V14.01,2013-11-19 07:06:00,
2013-11-19 02:11:00,74.6,70.8,29.90,West,265,0.0,2.0,88,0.00,,FEW021,0.00,0.00,VWS V14.01,2013-11-19 07:11:00,
2013-11-19 02:16:00,74.4,70.9,29.90,West,265,0.0,0.0,89,0.00,,FEW021,0.00,0.00,VWS V14.01,2013-11-19 07:16:00,
2013-11-19 02:21:00,74.3,70.8,29.90,West,265,0.0,1.0,89,0.00,,FEW021,0.00,0.00,VWS V14.01,2013-11-19 07:21:00,
2013-11-19 02:26:00,74.2,70.8,29.90,West,265,0.0,2.0,89,0.00,,FEW021,0.00,0.00,VWS V14.01,2013-11-19 07:26:00,
2013-11-19 02:31:00,74.1,71.0,29.90,West,265,0.0,0.0,90,0.00,,FEW021,0.00,0.00,VWS V14.01,2013-11-19 07:31:00,
2013-11-19 02:36:00,74.0,70.9,29.90,West,265,0.0,0.0,90,0.00,,FEW021,0.00,0.00,VWS V14.01,2013-11-19 07:36:00,
2013-11-19 02:42:00,73.8,70.7,29.90,West,265,0.0,0.0,90,0.00,,FEW021,0.00,0.00,VWS V14.01,2013-11-19 07:42:00,
2013-11-19 02:47:00,73.7,70.6,29.90,West,265,0.0,0.0,90,0.00,,FEW021,0.00,0.00,VWS V14.01,2013-11-19 07:47:00,
2013-11-19 02:52:00,73.5,70.4,29.90,West,265,0.0,0.0,90,0.00,,FEW021,0.00,0.00,VWS V14.01,2013-11-19 07:52:00,
2013-11-19 02:57:00,73.3,70.2,29.90,West,265,0.0,0.0,90,0.00,,FEW021,0.00,0.00,VWS V14.01,2013-11-19 07:57:00,
2013-11-19 03:02:00,73.2,70.4,29.89,West,265,0.0,0.0,91,0.00,,FEW021,0.00,0.00,VWS V14.01,2013-11-19 08:02:00,
2013-11-19 03:07:00,73.1,70.3,29.89,West,264,0.0,0.0,91,0.00,,FEW021,0.00,0.00,VWS V14.01,2013-11-19 08:07:00,
2013-11-19 03:13:00,73.0,70.2,29.89,West,265,0.0,0.0,91,0.00,,FEW021,0.00,0.00,VWS V14.01,2013-11-19 08:13:00,
2013-11-19 03:18:00,72.9,70.1,29.89,West,265,2.0,2.0,91,0.00,,FEW021,0.00,0.00,VWS V14.01,2013-11-19 08:18:00,
2013-11-19 03:23:00,72.9,70.4,29.88,West,265,1.0,2.0,92,0.00,,FEW021,0.00,0.00,VWS V14.01,2013-11-19 08:23:00,
2013-11-19 03:28:00,72.8,70.3,29.88,West,265,0.0,2.0,92,0.00,,FEW021,0.00,0.00,VWS V14.01,2013-11-19 08:28:00,
2013-11-19 03:33:00,72.7,70.2,29.88,West,264,0.0,0.0,92,0.00,,FEW021,0.00,0.00,VWS V14.01,2013-11-19 08:33:00,
2013-11-19 03:38:00,72.6,70.2,29.88,West,265,0.0,2.0,92,0.00,,FEW021,0.00,0.00,VWS V14.01,2013-11-19 08:38:00,
2013-11-19 03:43:00,72.5,70.1,29.88,West,264,0.0,2.0,92,0.00,,FEW021,0.00,0.00,VWS V14.01,2013-11-19 08:43:00,
2013-11-19 03:48:00,72.5,70.1,29.88,West,265,0.0,2.0,92,0.00,,FEW021,0.00,0.00,VWS V14.01,2013-11-19 08:48:00,
2013-11-19 03:53:00,72.4,69.9,29.88,West,264,0.0,0.0,92,0.00,,FEW021,0.00,0.00,VWS V14.01,2013-11-19 08:53:00,
2013-11-19 03:58:00,72.4,69.9,29.88,West,265,0.0,0.0,92,0.00,,FEW021,0.00,0.00,VWS V14.01,2013-11-19 08:58:00,
2013-11-19 04:03:00,72.3,69.8,29.89,West,265,0.0,1.0,92,0.00,,FEW021,0.00,0.00,VWS V14.01,2013-11-19 09:03:00,
2013-11-19 04:08:00,72.3,69.8,29.89,West,265,0.0,0.0,92,0.00,,FEW021,0.00,0.00,VWS V14.01,2013-11-19 09:08:00,
2013-11-19 04:13:00,72.2,70.1,29.89,West,265,0.0,0.0,93,0.00,,FEW021,0.00,0.00,VWS V14.01,2013-11-19 09:13:00,
2013-11-19 04:18:00,72.2,70.1,29.89,West,265,0.0,0.0,93,0.00,,FEW021,0.00,0.00,VWS V14.01,2013-11-19 09:18:00,
2013-11-19 04:23:00,72.1,70.0,29.89,West,264,0.0,0.0,93,0.00,,FEW021,0.00,0.00,VWS V14.01,2013-11-19 09:23:00,
2013-11-19 04:28:00,72.1,70.0,29.89,West,265,0.0,0.0,93,0.00,,FEW021,0.00,0.00,VWS V14.01,2013-11-19 09:28:00,
2013-11-19 04:33:00,72.1,70.0,29.90,West,265,0.0,1.0,93,0.00,,FEW021,0.00,0.00,VWS V14.01,2013-11-19 09:33:00,
2013-11-19 04:38:00,72.2,70.1,29.90,West,265,0.0,0.0,93,0.00,,FEW021,0.00,0.00,VWS V14.01,2013-11-19 09:38:00,
2013-11-19 04:43:00,72.2,70.1,29.89,West,265,0.0,0.0,93,0.00,,FEW021,0.00,0.00,VWS V14.01,2013-11-19 09:43:00,
2013-11-19 04:48:00,72.3,70.2,29.89,West,265,0.0,0.0,93,0.00,,FEW021,0.00,0.00,VWS V14.01,2013-11-19 09:48:00,
2013-11-19 04:53:00,72.3,70.2,29.89,West,265,0.0,1.0,93,0.00,,FEW021,0.00,0.00,VWS V14.01,2013-11-19 09:53:00,
2013-11-19 04:58:00,72.3,70.2,29.89,West,265,0.0,0.0,93,0.00,,FEW021,0.00,0.00,VWS V14.01,2013-11-19 09:58:00,
2013-11-19 05:03:00,72.3,70.2,29.89,West,265,0.0,0.0,93,0.00,,FEW021,0.00,0.00,VWS V14.01,2013-11-19 10:03:00,
2013-11-19 05:08:00,72.2,70.1,29.89,West,264,0.0,1.0,93,0.00,,FEW021,0.00,0.00,VWS V14.01,2013-11-19 10:08:00,
2013-11-19 05:13:00,72.1,70.0,29.89,West,265,0.0,1.0,93,0.00,,FEW021,0.00,0.00,VWS V14.01,2013-11-19 10:13:00,
2013-11-19 05:18:00,72.1,70.0,29.90,West,264,0.0,2.0,93,0.00,,FEW021,0.00,0.00,VWS V14.01,2013-11-19 10:18:00,
2013-11-19 05:23:00,72.1,70.0,29.90,West,265,1.0,2.0,93,0.00,,FEW021,0.00,0.00,VWS V14.01,2013-11-19 10:23:00,
2013-11-19 05:28:00,72.1,70.0,29.90,West,265,1.0,2.0,93,0.00,,FEW021,0.00,0.00,VWS V14.01,2013-11-19 10:28:00,
2013-11-19 05:33:00,72.0,69.6,29.90,West,265,0.0,1.0,92,0.00,,FEW021,0.00,0.00,VWS V14.01,2013-11-19 10:33:00,
2013-11-19 05:38:00,72.0,69.6,29.90,West,265,0.0,0.0,92,0.00,,FEW021,0.00,0.00,VWS V14.01,2013-11-19 10:38:00,
2013-11-19 05:43:00,71.9,69.4,29.90,West,264,0.0,2.0,92,0.00,,FEW021,0.00,0.00,VWS V14.01,2013-11-19 10:43:00,
2013-11-19 05:48:00,71.9,69.4,29.90,West,265,0.0,1.0,92,0.00,,FEW021,0.00,0.00,VWS V14.01,2013-11-19 10:48:00,
2013-11-19 05:53:00,71.8,69.3,29.90,West,265,0.0,0.0,92,0.00,,FEW021,0.00,0.00,VWS V14.01,2013-11-19 10:53:00,
2013-11-19 05:58:00,71.7,69.6,29.90,West,264,0.0,2.0,93,0.00,,FEW021,0.00,0.00,VWS V14.01,2013-11-19 10:58:00,
2013-11-19 06:03:00,71.6,69.5,29.90,West,265,0.0,1.0,93,0.00,,FEW021,0.00,0.00,VWS V14.01,2013-11-19 11:03:00,
2013-11-19 06:08:00,71.6,69.5,29.90,West,265,0.0,2.0,93,0.00,,FEW021,0.00,0.00,VWS V14.01,2013-11-19 11:08:00,
2013-11-19 06:13:00,71.5,69.4,29.90,West,265,0.0,1.0,93,0.00,,FEW021,0.00,0.00,VWS V14.01,2013-11-19 11:13:00,
2013-11-19 06:18:00,71.5,69.4,29.90,West,265,0.0,0.0,93,0.00,,FEW021,0.00,0.00,VWS V14.01,2013-11-19 11:18:00,
2013-11-19 06:23:00,71.4,69.3,29.90,West,265,0.0,1.0,93,0.00,,FEW021,0.00,0.00,VWS V14.01,2013-11-19 11:23:00,
2013-11-19 06:28:00,71.3,69.2,29.91,West,265,1.0,2.0,93,0.00,,FEW021,0.00,0.00,VWS V14.01,2013-11-19 11:28:00,
2013-11-19 06:33:00,71.3,69.2,29.91,West,265,0.0,2.0,93,0.00,,FEW021,0.00,0.00,VWS V14.01,2013-11-19 11:33:00,
2013-11-19 06:38:00,71.3,69.2,29.91,West,264,0.0,0.0,93,0.00,,FEW021,0.00,0.00,VWS V14.01,2013-11-19 11:38:00,
2013-11-19 06:43:00,71.3,69.2,29.91,West,265,1.0,2.0,93,0.00,,FEW021,0.00,0.00,VWS V14.01,2013-11-19 11:43:00,
2013-11-19 06:48:00,71.3,69.2,29.91,West,265,0.0,1.0,93,0.00,,FEW021,0.00,7.00,VWS V14.01,2013-11-19 11:48:00,
2013-11-19 06:53:00,71.2,69.1,29.91,West,265,0.0,0.0,93,0.00,,FEW021,0.00,9.00,VWS V14.01,2013-11-19 11:53:00,
2013-11-19 06:58:00,71.2,69.1,29.91,West,265,0.0,1.0,93,0.00,,FEW021,0.00,14.00,VWS V14.01,2013-11-19 11:58:00,
2013-11-19 07:03:00,71.2,69.1,29.91,West,265,0.0,0.0,93,0.00,,FEW021,0.00,19.00,VWS V14.01,2013-11-19 12:03:00,
2013-11-19 07:08:00,71.2,69.1,29.92,West,265,0.0,1.0,93,0.00,,FEW021,0.00,26.00,VWS V14.01,2013-11-19 12:08:00,
2013-11-19 07:13:00,71.3,69.5,29.92,West,265,0.0,1.0,94,0.00,,FEW021,0.00,37.00,VWS V14.01,2013-11-19 12:13:00,
2013-11-19 07:18:00,71.5,69.7,29.92,West,265,1.0,3.0,94,0.00,,FEW021,0.00,39.00,VWS V14.01,2013-11-19 12:18:00,
2013-11-19 07:23:00,71.7,69.9,29.92,West,279,0.0,3.0,94,0.00,,FEW021,0.00,54.00,VWS V14.01,2013-11-19 12:23:00,
2013-11-19 07:28:00,71.9,70.1,29.92,West,279,3.0,3.0,94,0.00,,FEW021,0.00,79.00,VWS V14.01,2013-11-19 12:28:00,
2013-11-19 07:33:00,72.2,70.4,29.92,WNW,292,0.0,3.0,94,0.00,,FEW021,0.00,83.00,VWS V14.01,2013-11-19 12:33:00,
2013-11-19 07:38:00,72.6,70.5,29.92,WNW,292,1.0,2.0,93,0.00,,FEW021,0.00,77.00,VWS V14.01,2013-11-19 12:38:00,
2013-11-19 07:43:00,73.0,70.9,29.93,WNW,292,1.0,2.0,93,0.00,,FEW021,0.00,70.00,VWS V14.01,2013-11-19 12:43:00,
2013-11-19 07:48:00,73.3,70.8,29.93,WNW,292,1.0,3.0,92,0.00,,FEW021,0.00,70.00,VWS V14.01,2013-11-19 12:48:00,
2013-11-19 07:53:00,73.5,70.7,29.93,WNW,287,2.0,4.0,91,0.00,,FEW021,0.00,77.00,VWS V14.01,2013-11-19 12:53:00,
2013-11-19 07:58:00,73.7,70.9,29.92,West,279,2.0,3.0,91,0.00,,FEW021,0.00,77.00,VWS V14.01,2013-11-19 12:58:00,
2013-11-19 08:03:00,73.9,70.8,29.93,WNW,289,1.0,4.0,90,0.00,,FEW021,0.00,74.00,VWS V14.01,2013-11-19 13:03:00,
2013-11-19 08:08:00,74.0,70.9,29.93,WNW,303,2.0,3.0,90,0.00,,FEW021,0.00,79.00,VWS V14.01,2013-11-19 13:08:00,
2013-11-19 08:13:00,74.1,71.0,29.93,WNW,300,2.0,4.0,90,0.00,,FEW021,0.00,84.00,VWS V14.01,2013-11-19 13:13:00,
2013-11-19 08:18:00,74.2,71.1,29.93,NW,323,0.0,3.0,90,0.00,,FEW021,0.00,91.00,VWS V14.01,2013-11-19 13:18:00,
2013-11-19 08:23:00,74.3,71.2,29.93,NW,313,1.0,3.0,90,0.00,,FEW021,0.00,104.00,VWS V14.01,2013-11-19 13:23:00,
2013-11-19 08:28:00,74.5,71.4,29.93,NW,315,3.0,4.0,90,0.00,,FEW021,0.00,102.00,VWS V14.01,2013-11-19 13:28:00,
2013-11-19 08:33:00,74.6,71.5,29.94,NW,317,2.0,4.0,90,0.00,,FEW021,0.00,107.00,VWS V14.01,2013-11-19 13:33:00,
2013-11-19 08:38:00,74.8,71.7,29.94,NW,317,3.0,3.0,90,0.00,,FEW021,0.00,121.00,VWS V14.01,2013-11-19 13:38:00,
2013-11-19 08:43:00,75.0,71.9,29.94,WNW,296,3.0,4.0,90,0.00,,FEW021,0.00,135.00,VWS V14.01,2013-11-19 13:43:00,
2013-11-19 08:48:00,75.2,71.7,29.94,NNW,336,1.0,4.0,89,0.00,,FEW021,0.00,162.00,VWS V14.01,2013-11-19 13:48:00,
2013-11-19 08:53:00,75.3,71.8,29.94,NNW,331,4.0,7.0,89,0.00,,FEW021,0.00,209.00,VWS V14.01,2013-11-19 13:53:00,
2013-11-19 08:58:00,75.7,72.2,29.94,NW,319,2.0,6.0,89,0.00,,FEW021,0.00,446.00,VWS V14.01,2013-11-19 13:58:00,
2013-11-19 09:03:00,76.7,72.5,29.94,NW,311,4.0,5.0,87,0.00,,FEW021,0.00,343.00,VWS V14.01,2013-11-19 14:03:00,
2013-11-19 09:08:00,77.2,72.7,29.94,NNW,336,4.0,6.0,86,0.00,,FEW021,0.00,330.00,VWS V14.01,2013-11-19 14:08:00,
2013-11-19 09:13:00,77.7,72.8,29.94,NW,309,1.0,7.0,85,0.00,,FEW021,0.00,302.00,VWS V14.01,2013-11-19 14:13:00,
2013-11-19 09:18:00,78.0,72.8,29.94,NW,317,5.0,7.0,84,0.00,,FEW021,0.00,276.00,VWS V14.01,2013-11-19 14:18:00,
2013-11-19 09:23:00,77.8,72.6,29.94,NNW,329,1.0,7.0,84,0.00,,FEW021,0.00,257.00,VWS V14.01,2013-11-19 14:23:00,
2013-11-19 09:28:00,77.8,72.6,29.94,NNW,328,1.0,4.0,84,0.00,,FEW021,0.00,258.00,VWS V14.01,2013-11-19 14:28:00,
2013-11-19 09:33:00,77.8,72.6,29.94,NNW,338,3.0,5.0,84,0.00,,FEW021,0.00,257.00,VWS V14.01,2013-11-19 14:33:00,
2013-11-19 09:38:00,77.9,72.7,29.95,NW,323,3.0,7.0,84,0.00,,FEW021,0.00,315.00,VWS V14.01,2013-11-19 14:38:00,
2013-11-19 09:43:00,78.1,72.9,29.95,NW,316,2.0,6.0,84,0.00,,FEW021,0.00,446.00,VWS V14.01,2013-11-19 14:43:00,
2013-11-19 09:48:00,78.7,73.1,29.95,NNW,328,4.0,6.0,83,0.00,,FEW021,0.00,357.00,VWS V14.01,2013-11-19 14:48:00,
2013-11-19 09:53:00,78.7,73.1,29.95,NNW,345,2.0,5.0,83,0.00,,FEW021,0.00,338.00,VWS V14.01,2013-11-19 14:53:00,
2013-11-19 09:58:00,78.7,73.1,29.95,NNW,344,3.0,6.0,83,0.00,,FEW021,0.00,615.00,VWS V14.01,2013-11-19 14:58:00,
2013-11-19 10:03:00,79.4,73.4,29.95,NW,319,1.0,8.0,82,0.00,,FEW021,0.00,309.00,VWS V14.01,2013-11-19 15:03:00,
2013-11-19 10:08:00,79.4,73.1,29.95,NNW,331,2.0,6.0,81,0.00,,FEW021,0.00,378.00,VWS V14.01,2013-11-19 15:08:00,
2013-11-19 10:13:00,79.6,73.6,29.95,NNW,339,4.0,6.0,82,0.00,,FEW021,0.00,471.00,VWS V14.01,2013-11-19 15:13:00,
2013-11-19 10:18:00,79.6,73.3,29.95,NW,325,4.0,5.0,81,0.00,,FEW021,0.00,325.00,VWS V14.01,2013-11-19 15:18:00,
2013-11-19 10:23:00,79.5,72.8,29.95,NNW,334,4.0,7.0,80,0.00,,FEW021,0.00,311.00,VWS V14.01,2013-11-19 15:23:00,
2013-11-19 10:28:00,79.4,72.7,29.95,NNW,345,3.0,9.0,80,0.00,,FEW021,0.00,343.00,VWS V14.01,2013-11-19 15:28:00,
2013-11-19 10:33:00,79.4,73.1,29.95,NNW,346,2.0,6.0,81,0.00,,FEW021,0.00,381.00,VWS V14.01,2013-11-19 15:33:00,
2013-11-19 10:38:00,79.8,73.4,29.95,NNW,342,2.0,6.0,81,0.00,,FEW021,0.00,413.00,VWS V14.01,2013-11-19 15:38:00,
2013-11-19 10:43:00,80.1,73.4,29.95,NNW,331,4.0,8.0,80,0.00,,FEW021,0.00,536.00,VWS V14.01,2013-11-19 15:43:00,
2013-11-19 10:48:00,80.7,73.6,29.94,NW,312,3.0,6.0,79,0.00,,FEW021,0.00,439.00,VWS V14.01,2013-11-19 15:48:00,
2013-11-19 10:53:00,81.0,73.1,29.95,NNW,348,3.0,8.0,77,0.00,,FEW021,0.00,353.00,VWS V14.01,2013-11-19 15:53:00,
2013-11-19 10:58:00,80.5,73.0,29.94,NNW,344,2.0,7.0,78,0.00,,FEW021,0.00,346.00,VWS V14.01,2013-11-19 15:58:00,
2013-11-19 11:03:00,80.5,73.0,29.94,NNW,345,1.0,5.0,78,0.00,,FEW021,0.00,345.00,VWS V14.01,2013-11-19 16:03:00,
2013-11-19 11:08:00,80.5,73.0,29.94,NW,322,2.0,6.0,78,0.00,,FEW021,0.00,359.00,VWS V14.01,2013-11-19 16:08:00,
2013-11-19 11:13:00,80.7,73.2,29.94,NNW,333,3.0,9.0,78,0.00,,FEW021,0.00,496.00,VWS V14.01,2013-11-19 16:13:00,
2013-11-19 11:18:00,81.4,73.9,29.94,NNW,346,6.0,7.0,78,0.00,,FEW021,0.00,773.00,VWS V14.01,2013-11-19 16:18:00,
2013-11-19 11:23:00,82.4,74.1,29.94,WNW,298,2.0,8.0,76,0.00,,FEW021,0.00,468.00,VWS V14.01,2013-11-19 16:23:00,
2013-11-19 11:28:00,83.0,74.7,29.93,NE,34,2.0,6.0,76,0.00,,FEW021,0.00,710.00,VWS V14.01,2013-11-19 16:28:00,
2013-11-19 11:33:00,83.2,74.1,29.94,NW,304,3.0,7.0,74,0.00,,FEW021,0.00,473.00,VWS V14.01,2013-11-19 16:33:00,
2013-11-19 11:38:00,83.5,73.9,29.93,NNW,327,4.0,6.0,73,0.00,,FEW021,0.00,417.00,VWS V14.01,2013-11-19 16:38:00,
2013-11-19 11:43:00,83.2,74.8,29.93,NNW,340,0.0,6.0,76,0.00,,FEW021,0.00,475.00,VWS V14.01,2013-11-19 16:43:00,
2013-11-19 11:48:00,83.0,73.5,29.92,NW,305,3.0,5.0,73,0.00,,FEW021,0.00,397.00,VWS V14.01,2013-11-19 16:48:00,
2013-11-19 11:53:00,82.8,73.3,29.92,WNW,287,2.0,5.0,73,0.00,,FEW021,0.00,383.00,VWS V14.01,2013-11-19 16:53:00,
2013-11-19 11:58:00,83.0,73.5,29.92,NNW,340,3.0,5.0,73,0.00,,FEW021,0.00,777.00,VWS V14.01,2013-11-19 16:58:00,
2013-11-19 12:03:00,84.1,74.5,29.92,NNE,31,2.0,5.0,73,0.00,,FEW021,0.00,821.00,VWS V14.01,2013-11-19 17:03:00,
2013-11-19 12:08:00,84.5,74.1,29.91,NNW,348,4.0,6.0,71,0.00,,FEW021,0.00,758.00,VWS V14.01,2013-11-19 17:08:00,
2013-11-19 12:13:00,84.8,74.4,29.91,NW,305,0.0,8.0,71,0.00,,FEW021,0.00,765.00,VWS V14.01,2013-11-19 17:13:00,
2013-11-19 12:18:00,84.8,73.9,29.91,NNE,13,4.0,5.0,70,0.00,,FEW021,0.00,322.00,VWS V14.01,2013-11-19 17:18:00,
2013-11-19 12:23:00,84.3,73.9,29.91,NNW,339,1.0,5.0,71,0.00,,FEW021,0.00,401.00,VWS V14.01,2013-11-19 17:23:00,
2013-11-19 12:28:00,83.8,73.8,29.90,NNW,329,4.0,8.0,72,0.00,,FEW021,0.00,522.00,VWS V14.01,2013-11-19 17:28:00,
2013-11-19 12:33:00,84.2,73.8,29.90,NNW,331,3.0,9.0,71,0.00,,FEW021,0.00,475.00,VWS V14.01,2013-11-19 17:33:00,
2013-11-19 12:35:00,84.2,73.4,29.90,WNW,285,2.0,9.0,70,0.00,,FEW021,0.00,483.00,VWS V14.01,2013-11-19 17:35:00,
2013-11-19 12:40:00,84.0,73.6,29.90,NW,311,3.0,8.0,71,0.00,,FEW021,0.00,524.00,VWS V14.01,2013-11-19 17:40:00,
2013-11-19 12:45:00,84.8,74.4,29.89,North,5,3.0,9.0,71,0.00,,FEW021,0.00,851.00,VWS V14.01,2013-11-19 17:45:00,
2013-11-19 12:50:00,85.5,73.7,29.89,WNW,289,5.0,6.0,68,0.00,,FEW021,0.00,403.00,VWS V14.01,2013-11-19 17:50:00,
2013-11-19 12:55:00,85.2,73.0,29.89,NW,313,2.0,8.0,67,0.00,,FEW021,0.00,489.00,VWS V14.01,2013-11-19 17:55:00,
2013-11-19 13:00:00,84.7,73.8,29.89,WNW,293,2.0,4.0,70,0.00,,FEW021,0.00,684.00,VWS V14.01,2013-11-19 18:00:00,
2013-11-19 13:05:00,85.2,73.0,29.89,WNW,285,6.0,7.0,67,0.00,,FEW021,0.00,749.00,VWS V14.01,2013-11-19 18:05:00,
2013-11-19 13:10:00,86.2,72.6,29.89,NNW,337,2.0,8.0,64,0.00,,FEW021,0.00,710.00,VWS V14.01,2013-11-19 18:10:00,
2013-11-19 13:15:00,86.3,71.8,29.89,NNW,331,2.0,4.0,62,0.00,,FEW021,0.00,642.00,VWS V14.01,2013-11-19 18:15:00,
2013-11-19 13:20:00,85.9,71.8,29.88,West,277,2.0,5.0,63,0.00,,FEW021,0.00,726.00,VWS V14.01,2013-11-19 18:20:00,
2013-11-19 13:25:00,86.7,72.6,29.88,NNW,334,1.0,6.0,63,0.00,,FEW021,0.00,677.00,VWS V14.01,2013-11-19 18:25:00,
2013-11-19 13:30:00,86.9,71.8,29.88,North,355,4.0,9.0,61,0.00,,FEW021,0.00,770.00,VWS V14.01,2013-11-19 18:30:00,
2013-11-19 13:35:00,86.9,72.3,29.87,North,350,3.0,8.0,62,0.00,,FEW021,0.00,670.00,VWS V14.01,2013-11-19 18:35:00,
2013-11-19 13:40:00,87.2,72.6,29.87,NW,317,1.0,7.0,62,0.00,,FEW021,0.00,598.00,VWS V14.01,2013-11-19 18:40:00,
2013-11-19 13:45:00,87.2,72.6,29.87,NNW,328,5.0,6.0,62,0.00,,FEW021,0.00,735.00,VWS V14.01,2013-11-19 18:45:00,
2013-11-19 13:50:00,87.2,71.6,29.87,NNW,344,1.0,7.0,60,0.00,,FEW021,0.00,640.00,VWS V14.01,2013-11-19 18:50:00,
2013-11-19 13:55:00,87.2,71.6,29.87,NW,313,5.0,6.0,60,0.00,,FEW021,0.00,643.00,VWS V14.01,2013-11-19 18:55:00,
2013-11-19 14:00:00,87.0,71.9,29.86,WNW,300,3.0,7.0,61,0.00,,FEW021,0.00,214.00,VWS V14.01,2013-11-19 19:00:00,
2013-11-19 14:05:00,85.9,71.8,29.86,NNW,330,2.0,8.0,63,0.00,,FEW021,0.00,211.00,VWS V14.01,2013-11-19 19:05:00,
2013-11-19 14:10:00,85.0,71.9,29.86,NNW,337,3.0,6.0,65,0.00,,FEW021,0.00,121.00,VWS V14.01,2013-11-19 19:10:00,
2013-11-19 14:15:00,84.5,71.4,29.86,NW,322,3.0,7.0,65,0.00,,FEW021,0.00,123.00,VWS V14.01,2013-11-19 19:15:00,
2013-11-19 14:20:00,84.3,71.3,29.86,NNW,337,4.0,6.0,65,0.00,,FEW021,0.00,127.00,VWS V14.01,2013-11-19 19:20:00,
2013-11-19 14:25:00,83.9,70.9,29.86,NNW,331,2.0,8.0,65,0.00,,FEW021,0.00,134.00,VWS V14.01,2013-11-19 19:25:00,
2013-11-19 14:30:00,83.7,70.7,29.86,NNW,330,2.0,6.0,65,0.00,,FEW021,0.00,190.00,VWS V14.01,2013-11-19 19:30:00,
2013-11-19 14:35:00,84.1,71.5,29.86,NW,309,1.0,4.0,66,0.00,,FEW021,0.00,334.00,VWS V14.01,2013-11-19 19:35:00,
2013-11-19 14:40:00,85.2,71.7,29.86,WNW,294,4.0,5.0,64,0.00,,FEW021,0.00,601.00,VWS V14.01,2013-11-19 19:40:00,
2013-11-19 14:45:00,85.6,71.6,29.86,West,272,2.0,8.0,63,0.00,,FEW021,0.00,258.00,VWS V14.01,2013-11-19 19:45:00,
2013-11-19 14:50:00,85.7,71.7,29.86,WSW,248,2.0,6.0,63,0.00,,FEW021,0.00,475.00,VWS V14.01,2013-11-19 19:50:00,
2013-11-19 14:55:00,85.5,71.9,29.86,West,269,3.0,4.0,64,0.00,,FEW021,0.00,160.00,VWS V14.01,2013-11-19 19:55:00,
2013-11-19 15:00:00,84.7,73.0,29.86,NE,43,4.0,7.0,68,0.00,,FEW021,0.00,95.00,VWS V14.01,2013-11-19 20:00:00,
2013-11-19 15:05:00,83.5,72.3,29.86,NE,41,5.0,9.0,69,0.00,,FEW021,0.00,67.00,VWS V14.01,2013-11-19 20:05:00,
2013-11-19 15:10:00,82.4,72.5,29.86,NE,40,2.0,9.0,72,0.00,,FEW021,0.00,58.00,VWS V14.01,2013-11-19 20:10:00,
2013-11-19 15:15:00,81.5,72.4,29.86,NE,43,4.0,6.0,74,0.00,,FEW021,0.00,42.00,VWS V14.01,2013-11-19 20:15:00,
2013-11-19 15:20:00,80.9,72.6,29.86,ESE,108,1.0,5.0,76,0.00,,FEW021,0.00,46.00,VWS V14.01,2013-11-19 20:20:00,
2013-11-19 15:25:00,80.3,72.8,29.86,NE,46,2.0,5.0,78,0.00,,FEW021,0.00,81.00,VWS V14.01,2013-11-19 20:25:00,
2013-11-19 15:30:00,79.6,72.9,29.86,NE,34,3.0,5.0,80,0.00,,FEW021,0.00,95.00,VWS V14.01,2013-11-19 20:30:00,
2013-11-19 15:35:00,79.3,73.0,29.86,ENE,69,1.0,4.0,81,0.00,,FEW021,0.00,102.00,VWS V14.01,2013-11-19 20:35:00,
2013-11-19 15:40:00,79.1,72.8,29.86,East,93,2.0,5.0,81,0.00,,FEW021,0.00,111.00,VWS V14.01,2013-11-19 20:40:00,
2013-11-19 15:45:00,78.8,72.5,29.86,NE,40,3.0,4.0,81,0.00,,FEW021,0.00,116.00,VWS V14.01,2013-11-19 20:45:00,
2013-11-19 15:50:00,78.7,72.4,29.86,NE,38,2.0,9.0,81,0.00,,FEW021,0.00,88.00,VWS V14.01,2013-11-19 20:50:00,
2013-11-19 15:55:00,78.5,72.6,29.86,NNE,33,4.0,6.0,82,0.00,,FEW021,0.00,105.00,VWS V14.01,2013-11-19 20:55:00,
2013-11-19 16:00:00,78.4,72.4,29.86,ENE,67,2.0,7.0,82,0.00,,FEW021,0.00,130.00,VWS V14.01,2013-11-19 21:00:00,
2013-11-19 16:05:00,78.5,72.6,29.86,NE,46,2.0,5.0,82,0.00,,FEW021,0.00,135.00,VWS V14.01,2013-11-19 21:05:00,
2013-11-19 16:10:00,78.5,72.9,29.86,East,97,3.0,9.0,83,0.00,,FEW021,0.00,123.00,VWS V14.01,2013-11-19 21:10:00,
2013-11-19 16:15:00,78.5,72.9,29.87,ENE,63,3.0,5.0,83,0.00,,FEW021,0.00,125.00,VWS V14.01,2013-11-19 21:15:00,
2013-11-19 16:20:00,78.6,73.0,29.87,NE,46,1.0,6.0,83,0.00,,FEW021,0.00,246.00,VWS V14.01,2013-11-19 21:20:00,
2013-11-19 16:25:00,79.0,73.4,29.87,NE,36,2.0,5.0,83,0.00,,FEW021,0.00,237.00,VWS V14.01,2013-11-19 21:25:00,
2013-11-19 16:30:00,79.3,73.7,29.87,ENE,69,1.0,7.0,83,0.00,,FEW021,0.00,120.00,VWS V14.01,2013-11-19 21:30:00,
2013-11-19 16:35:00,79.3,74.1,29.87,NE,47,3.0,6.0,84,0.00,,FEW021,0.00,100.00,VWS V14.01,2013-11-19 21:35:00,
2013-11-19 16:40:00,79.3,74.1,29.87,NE,44,1.0,4.0,84,0.00,,FEW021,0.00,97.00,VWS V14.01,2013-11-19 21:40:00,
2013-11-19 16:45:00,79.4,74.2,29.87,ENE,63,3.0,8.0,84,0.00,,FEW021,0.00,88.00,VWS V14.01,2013-11-19 21:45:00,
2013-11-19 16:50:00,79.3,74.4,29.87,NE,37,1.0,5.0,85,0.00,,FEW021,0.00,47.00,VWS V14.01,2013-11-19 21:50:00,
2013-11-19 16:55:00,79.2,73.9,29.87,NE,38,3.0,8.0,84,0.00,,FEW021,0.00,21.00,VWS V14.01,2013-11-19 21:55:00,
2013-11-19 17:00:00,79.0,73.8,29.88,NE,41,8.0,8.0,84,0.00,,FEW021,0.00,19.00,VWS V14.01,2013-11-19 22:00:00,
2013-11-19 17:05:00,78.5,72.9,29.88,NE,40,5.0,11.0,83,0.00,,FEW021,0.00,7.00,VWS V14.01,2013-11-19 22:05:00,
2013-11-19 17:10:00,78.0,72.8,29.89,NE,43,7.0,10.0,84,0.00,,FEW021,0.00,5.00,VWS V14.01,2013-11-19 22:10:00,
2013-11-19 17:15:00,77.6,72.7,29.89,NE,44,3.0,7.0,85,0.00,,FEW021,0.00,0.00,VWS V14.01,2013-11-19 22:15:00,
2013-11-19 17:20:00,77.4,72.9,29.89,NNE,26,5.0,6.0,86,0.00,,FEW021,0.00,0.00,VWS V14.01,2013-11-19 22:20:00,
2013-11-19 17:25:00,77.2,72.7,29.89,NE,49,3.0,6.0,86,0.00,,FEW021,0.00,0.00,VWS V14.01,2013-11-19 22:25:00,
2013-11-19 17:30:00,77.1,72.9,29.89,NE,34,3.0,8.0,87,0.00,,FEW021,0.00,0.00,VWS V14.01,2013-11-19 22:30:00,
2013-11-19 17:35:00,76.9,72.7,29.90,NE,42,2.0,9.0,87,0.00,,FEW021,0.00,0.00,VWS V14.01,2013-11-19 22:35:00,
2013-11-19 17:40:00,76.8,73.0,29.90,NE,40,5.0,6.0,88,0.00,,FEW021,0.00,0.00,VWS V14.01,2013-11-19 22:40:00,
2013-11-19 17:45:00,76.7,72.9,29.89,NE,44,6.0,10.0,88,0.00,,FEW021,0.00,0.00,VWS V14.01,2013-11-19 22:45:00,
2013-11-19 17:50:00,76.6,72.8,29.89,NE,40,4.0,8.0,88,0.00,,FEW021,0.00,0.00,VWS V14.01,2013-11-19 22:50:00,
2013-11-19 17:55:00,76.5,72.7,29.89,NE,48,5.0,11.0,88,0.00,,FEW021,0.00,0.00,VWS V14.01,2013-11-19 22:55:00,
2013-11-19 18:00:00,76.5,73.0,29.89,NNE,32,5.0,11.0,89,0.01,,FEW021,0.01,0.00,VWS V14.01,2013-11-19 23:00:00,
2013-11-19 18:05:00,76.4,72.9,29.89,NE,46,8.0,10.0,89,0.01,,FEW021,0.01,0.00,VWS V14.01,2013-11-19 23:05:00,
2013-11-19 18:10:00,76.2,72.7,29.89,NNE,32,4.0,9.0,89,0.01,,FEW021,0.01,0.00,VWS V14.01,2013-11-19 23:10:00,
2013-11-19 18:15:00,75.9,72.4,29.90,NE,38,4.0,12.0,89,0.01,,FEW021,0.01,0.00,VWS V14.01,2013-11-19 23:15:00,
2013-11-19 18:20:00,75.7,72.2,29.89,NE,51,5.0,7.0,89,0.01,,FEW021,0.01,0.00,VWS V14.01,2013-11-19 23:20:00,
2013-11-19 18:25:00,75.6,72.1,29.90,NE,38,3.0,7.0,89,0.01,,FEW021,0.01,0.00,VWS V14.01,2013-11-19 23:25:00,
2013-11-19 18:30:00,75.5,72.0,29.90,NNE,33,3.0,5.0,89,0.01,,FEW021,0.01,0.00,VWS V14.01,2013-11-19 23:30:00,
2013-11-19 18:35:00,75.4,71.9,29.91,NE,35,2.0,7.0,89,0.01,,FEW021,0.01,0.00,VWS V14.01,2013-11-19 23:35:00,
2013-11-19 18:40:00,75.3,71.8,29.91,NE,43,1.0,4.0,89,0.01,,FEW021,0.01,0.00,VWS V14.01,2013-11-19 23:40:00,
2013-11-19 18:45:00,75.3,71.8,29.92,NE,43,2.0,4.0,89,0.01,,FEW021,0.01,0.00,VWS V14.01,2013-11-19 23:45:00,
2013-11-19 18:50:00,75.3,71.8,29.92,NE,44,1.0,4.0,89,0.01,,FEW021,0.01,0.00,VWS V14.01,2013-11-19 23:50:00,
2013-11-19 18:55:00,75.3,71.8,29.92,NE,44,2.0,5.0,89,0.01,,FEW021,0.01,0.00,VWS V14.01,2013-11-19 23:55:00,
2013-11-19 19:00:00,75.3,71.8,29.92,NE,42,2.0,5.0,89,0.00,,FEW021,0.01,0.00,VWS V14.01,2013-11-20 00:00:00,
2013-11-19 19:05:00,75.3,71.8,29.92,NE,39,1.0,4.0,89,0.00,,FEW021,0.01,0.00,VWS V14.01,2013-11-20 00:05:00,
2013-11-19 19:10:00,75.3,71.8,29.92,NE,41,0.0,3.0,89,0.00,,FEW021,0.01,0.00,VWS V14.01,2013-11-20 00:10:00,
2013-11-19 19:15:00,75.3,71.8,29.93,NE,41,2.0,3.0,89,0.00,,FEW021,0.01,0.00,VWS V14.01,2013-11-20 00:15:00,
2013-11-19 19:20:00,75.3,71.8,29.92,NE,41,0.0,2.0,89,0.00,,FEW021,0.01,0.00,VWS V14.01,2013-11-20 00:20:00,
2013-11-19 19:25:00,75.3,71.8,29.92,NE,41,0.0,0.0,89,0.00,,FEW021,0.01,0.00,VWS V14.01,2013-11-20 00:25:00,
2013-11-19 19:30:00,75.3,71.8,29.92,NE,41,2.0,3.0,89,0.00,,FEW021,0.01,0.00,VWS V14.01,2013-11-20 00:30:00,
2013-11-19 19:35:00,75.3,72.2,29.92,NE,41,0.0,2.0,90,0.00,,FEW021,0.01,0.00,VWS V14.01,2013-11-20 00:35:00,
2013-11-19 19:40:00,75.3,72.2,29.92,NE,41,0.0,3.0,90,0.00,,FEW021,0.01,0.00,VWS V14.01,2013-11-20 00:40:00,
2013-11-19 19:45:00,75.3,72.2,29.93,NE,41,0.0,0.0,90,0.00,,FEW021,0.01,0.00,VWS V14.01,2013-11-20 00:45:00,
2013-11-19 19:50:00,75.3,72.2,29.93,NE,41,2.0,2.0,90,0.00,,FEW021,0.01,0.00,VWS V14.01,2013-11-20 00:50:00,
2013-11-19 19:55:00,75.3,72.2,29.93,NE,41,1.0,2.0,90,0.00,,FEW021,0.01,0.00,VWS V14.01,2013-11-20 00:55:00,
2013-11-19 20:00:00,75.3,72.2,29.93,NE,49,0.0,3.0,90,0.00,,FEW021,0.01,0.00,VWS V14.01,2013-11-20 01:00:00,
2013-11-19 20:05:00,75.3,72.2,29.94,NE,49,0.0,0.0,90,0.00,,FEW021,0.01,0.00,VWS V14.01,2013-11-20 01:05:00,
2013-11-19 20:10:00,75.3,72.2,29.94,NE,49,0.0,0.0,90,0.00,,FEW021,0.01,0.00,VWS V14.01,2013-11-20 01:10:00,
2013-11-19 20:15:00,75.2,72.1,29.94,NE,49,0.0,0.0,90,0.00,,FEW021,0.01,0.00,VWS V14.01,2013-11-20 01:15:00,
2013-11-19 20:20:00,75.3,72.2,29.94,NE,49,0.0,0.0,90,0.00,,FEW021,0.01,0.00,VWS V14.01,2013-11-20 01:20:00,
2013-11-19 20:25:00,75.2,72.1,29.94,NE,49,0.0,0.0,90,0.00,,FEW021,0.01,0.00,VWS V14.01,2013-11-20 01:25:00,
2013-11-19 20:30:00,75.2,72.4,29.94,NE,49,0.0,0.0,91,0.00,,FEW021,0.01,0.00,VWS V14.01,2013-11-20 01:30:00,
2013-11-19 20:35:00,75.2,72.4,29.94,NE,49,0.0,0.0,91,0.00,,FEW021,0.01,0.00,VWS V14.01,2013-11-20 01:35:00,
2013-11-19 20:40:00,75.2,72.4,29.94,NE,49,0.0,0.0,91,0.00,,FEW021,0.01,0.00,VWS V14.01,2013-11-20 01:40:00,
2013-11-19 20:45:00,75.2,72.4,29.94,NE,49,0.0,0.0,91,0.00,,FEW021,0.01,0.00,VWS V14.01,2013-11-20 01:45:00,
2013-11-19 20:50:00,75.1,72.3,29.94,NE,49,0.0,0.0,91,0.00,,FEW021,0.01,0.00,VWS V14.01,2013-11-20 01:50:00,
2013-11-19 20:55:00,75.1,72.3,29.94,NNE,30,1.0,2.0,91,0.00,,FEW021,0.01,0.00,VWS V14.01,2013-11-20 01:55:00,
2013-11-19 21:00:00,75.1,72.3,29.94,NNE,28,1.0,2.0,91,0.00,,FEW021,0.01,0.00,VWS V14.01,2013-11-20 02:00:00,
2013-11-19 21:05:00,75.1,72.3,29.94,NNE,24,1.0,2.0,91,0.00,,FEW021,0.01,0.00,VWS V14.01,2013-11-20 02:05:00,
2013-11-19 21:10:00,75.1,72.3,29.94,NNE,22,2.0,3.0,91,0.00,,FEW021,0.01,0.00,VWS V14.01,2013-11-20 02:10:00,
2013-11-19 21:15:00,75.2,72.4,29.94,NW,314,1.0,3.0,91,0.00,,FEW021,0.01,0.00,VWS V14.01,2013-11-20 02:15:00,
2013-11-19 21:20:00,75.3,72.5,29.94,NW,314,0.0,2.0,91,0.00,,FEW021,0.01,0.00,VWS V14.01,2013-11-20 02:20:00,
2013-11-19 21:25:00,75.3,72.5,29.94,NW,314,1.0,2.0,91,0.00,,FEW021,0.01,0.00,VWS V14.01,2013-11-20 02:25:00,
2013-11-19 21:30:00,75.3,72.5,29.94,NW,314,1.0,2.0,91,0.00,,FEW021,0.01,0.00,VWS V14.01,2013-11-20 02:30:00,
2013-11-19 21:35:00,75.3,72.5,29.94,NW,314,1.0,2.0,91,0.00,,FEW021,0.01,0.00,VWS V14.01,2013-11-20 02:35:00,
2013-11-19 21:40:00,75.3,72.2,29.95,NW,314,0.0,2.0,90,0.00,,FEW021,0.01,0.00,VWS V14.01,2013-11-20 02:40:00,
2013-11-19 21:45:00,75.2,72.1,29.94,NW,314,0.0,0.0,90,0.00,,FEW021,0.01,0.00,VWS V14.01,2013-11-20 02:45:00,
2013-11-19 21:50:00,75.1,72.3,29.95,NW,314,0.0,1.0,91,0.00,,FEW021,0.01,0.00,VWS V14.01,2013-11-20 02:50:00,
2013-11-19 21:55:00,75.1,72.3,29.95,NW,314,0.0,2.0,91,0.00,,FEW021,0.01,0.00,VWS V14.01,2013-11-20 02:55:00,
2013-11-19 22:00:00,75.1,72.3,29.95,NW,314,0.0,2.0,91,0.00,,FEW021,0.01,0.00,VWS V14.01,2013-11-20 03:00:00,
2013-11-19 22:05:00,75.1,72.3,29.95,NW,314,0.0,0.0,91,0.00,,FEW021,0.01,0.00,VWS V14.01,2013-11-20 03:05:00,
2013-11-19 22:10:00,75.0,72.2,29.95,NW,314,1.0,1.0,91,0.00,,FEW021,0.01,0.00,VWS V14.01,2013-11-20 03:10:00,
2013-11-19 22:15:00,74.9,72.1,29.95,NW,315,2.0,2.0,91,0.00,,FEW021,0.01,0.00,VWS V14.01,2013-11-20 03:15:00,
2013-11-19 22:20:00,74.9,72.1,29.95,NW,316,2.0,3.0,91,0.00,,FEW021,0.01,0.00,VWS V14.01,2013-11-20 03:20:00,
2013-11-19 22:25:00,74.8,72.0,29.95,NNW,328,2.0,4.0,91,0.00,,FEW021,0.01,0.00,VWS V14.01,2013-11-20 03:25:00,
2013-11-19 22:29:00,74.6,71.8,29.95,NNW,334,4.0,5.0,91,0.00,,FEW021,0.01,0.00,VWS V14.01,2013-11-20 03:29:00,
2013-11-19 22:34:00,74.5,71.7,29.95,NW,326,2.0,4.0,91,0.00,,FEW021,0.01,0.00,VWS V14.01,2013-11-20 03:34:00,
2013-11-19 22:39:00,74.4,71.6,29.95,NNW,330,3.0,3.0,91,0.00,,FEW021,0.01,0.00,VWS V14.01,2013-11-20 03:39:00,
2013-11-19 22:44:00,74.3,71.5,29.95,NNW,338,4.0,5.0,91,0.00,,FEW021,0.01,0.00,VWS V14.01,2013-11-20 03:44:00,
2013-11-19 22:49:00,74.3,71.2,29.95,NNW,333,2.0,6.0,90,0.00,,FEW021,0.01,0.00,VWS V14.01,2013-11-20 03:49:00,
2013-11-19 22:54:00,74.3,71.2,29.95,NW,322,2.0,4.0,90,0.00,,FEW021,0.01,0.00,VWS V14.01,2013-11-20 03:54:00,
2013-11-19 22:59:00,74.3,71.2,29.95,NW,319,2.0,4.0,90,0.00,,FEW021,0.01,0.00,VWS V14.01,2013-11-20 03:59:00,
2013-11-19 23:04:00,74.3,71.2,29.95,NW,308,1.0,4.0,90,0.00,,FEW021,0.01,0.00,VWS V14.01,2013-11-20 04:04:00,
2013-11-19 23:09:00,74.3,71.2,29.95,NW,316,2.0,5.0,90,0.00,,FEW021,0.01,0.00,VWS V14.01,2013-11-20 04:09:00,
2013-11-19 23:14:00,74.2,71.1,29.95,WNW,302,2.0,4.0,90,0.00,,FEW021,0.01,0.00,VWS V14.01,2013-11-20 04:14:00,
2013-11-19 23:19:00,74.2,71.1,29.94,NW,305,1.0,3.0,90,0.00,,FEW021,0.01,0.00,VWS V14.01,2013-11-20 04:19:00,
2013-11-19 23:24:00,74.1,71.0,29.94,NW,322,2.0,4.0,90,0.00,,FEW021,0.01,0.00,VWS V14.01,2013-11-20 04:24:00,
2013-11-19 23:29:00,74.0,70.9,29.94,NNW,335,2.0,4.0,90,0.00,,FEW021,0.01,0.00,VWS V14.01,2013-11-20 04:29:00,
2013-11-19 23:34:00,73.9,70.8,29.94,NNW,331,1.0,4.0,90,0.00,,FEW021,0.01,0.00,VWS V14.01,2013-11-20 04:34:00,
2013-11-19 23:39:00,73.8,71.0,29.94,NNW,336,0.0,4.0,91,0.00,,FEW021,0.01,0.00,VWS V14.01,2013-11-20 04:39:00,
2013-11-19 23:44:00,73.7,70.9,29.94,NNW,336,1.0,3.0,91,0.00,,FEW021,0.01,0.00,VWS V14.01,2013-11-20 04:44:00,
2013-11-19 23:49:00,73.6,70.8,29.94,NNW,336,0.0,3.0,91,0.00,,FEW021,0.01,0.00,VWS V14.01,2013-11-20 04:49:00,
2013-11-19 23:54:00,73.5,70.7,29.94,NNW,336,0.0,0.0,91,0.00,,FEW021,0.01,0.00,VWS V14.01,2013-11-20 04:54:00,
2013-11-19 23:59:00,73.5,71.0,29.94,NNW,336,0.0,0.0,92,0.00,,FEW021,0.00,0.00,VWS V14.01,2013-11-20 04:59:00,